Regional Weather Roundup
Issued by NWS

Home | Current Version | Previous Version | Text Only | Print | Product List | Glossary On
Versions: 1 2 3 4 5 6 7 8 9 10 11 12 13 14 15 16 17 18 19 20 21 22 23 24 25 26 27 28 29 30 31 32 33 34 35 36 37 38 39 40 41 42 43 44 45 46 47 48 49 50
000
ASUS44 KJAN 251410
RWRMS

MISSISSIPPI HOURLY WEATHER ROUNDUP
NATIONAL WEATHER SERVICE JACKSON MS
800 AM CST THU DEC 25 2014

NOTE: "FAIR: INDICATES FEW OR NO CLOUDS BELOW 12,000 FEET WITH NO
SIGNIFICANT WEATHER AND/OR OBSTRUCTIONS TO VISIBILITY.

MSZ001>002-007>008-010>013-018>021-025>028-034>036-251500-
NORTHWEST MISSISSIPPI

CITY           SKY/WX    TMP DP  RH WIND       PRES   REMARKS
CLARKSDALE     FAIR      36  36 100 S7        30.21R WCI  30
CLEVELAND      FAIR      36  35  96 SW7       30.21R WCI  30
GREENWOOD      CLEAR     33  31  92 S3        30.22R
GREENVILLE     CLEAR     34  32  92 S8        30.21R WCI  27
GRENADA        FAIR      32  32 100 CALM      30.22R FOG
OLIVE BRANCH   CLEAR     32  32 100 S7        30.18R WCI  26
OXFORD         FAIR      32  32 100 SW3       30.21R
TUNICA         SUNNY     34  32  93 S5        30.20R WCI  30
$$

MSZ003>006-009-014>017-022>024-029>033-037>039-251500-
NORTHEAST MISSISSIPPI

CITY           SKY/WX    TMP DP  RH WIND       PRES   REMARKS
COLUMBUS AFB   SUNNY     32  32  99 CALM      30.23R
CORINTH        FAIR      41  37  87 S8        30.18R
GOLDN TRIANGLE SUNNY     36  30  80 W5        30.21R WCI  32
STARKVILLE     FAIR      32  32 100 CALM      30.23R
TUPELO         CLEAR     35  33  92 CALM      30.20R
$$

MSZ040-058-251500-
CENTRAL MISSISSIPPI

CITY           SKY/WX    TMP DP  RH WIND       PRES   REMARKS
JACKSON INTL   SUNNY     33  31  92 S3        30.25R
JACKSON HAWKNS CLEAR     34  31  88 S5        30.25R WCI  30
MERIDIAN KEY   FOG       32  32 100 CALM      30.25R VSB 3/4
MERIDIAN NAS   SUNNY     35  32  88 CALM      30.25R
RAYMOND        FAIR      32  28  86 MISG      30.25R
VICKSBURG      CLEAR     35  33  92 SE3       30.24S
$$

MSZ059>079-251500-
SOUTH MISSISSIPPI

CITY           SKY/WX    TMP DP  RH WIND       PRES   REMARKS
HATTIESBURG    SUNNY     36  34  92 CALM      30.28R
MCCOMB         SUNNY     34  31  88 CALM      30.25R
NATCHEZ        CLEAR     34  30  86 SE7       30.24R WCI  28
PINE BELT      SUNNY     36  32  87 SW3       30.27R
$$

MSZ080>082-251500-
COASTAL MISSISSIPPI

CITY           SKY/WX    TMP DP  RH WIND       PRES   REMARKS
BAY ST LOUIS   SUNNY     37  34  87 CALM      30.28R
BILOXI         SUNNY     42  38  85 NW6       30.27R
PASCAGOULA     SUNNY     37  36  96 CALM      30.27R
GULFPORT       SUNNY     38  36  92 NW3       30.27R
$$


USA.gov is the U.S. government's official web portal to all federal, state and local government web resources and services.